North Conway, NH

9:35 AM EST on December 11, 2019 (GMT -0500)
North Conway

Weather History for KCWN - October, 2019

Change the Weather History Date:

Thursday, October 24, 2019

  Actual Average (KIZG) Record (KIZG)
Temperature  
Mean Temperature 26 °F -  
Max Temperature 28 °F 53 °F 73 °F (1998)
Min Temperature 23 °F 29 °F 18 °F (2002)
Degree Days  
Heating Degree Days 40    
Moisture  
Dew Point 22 °F    
Average Humidity 86    
Maximum Humidity 95    
Minimum Humidity 76    
Precipitation  
Precipitation 0.07 in - - ()
Sea Level Pressure  
Sea Level Pressure 30.12 in    
Wind  
Wind Speed 12 mph (NNW)    
Max Wind Speed 17 mph    
Max Gust Speed 28 mph    
Visibility 7 miles    
Events Rain , Snow    
Averages and records for this station are not official NWS values.
T = Trace of Precipitation, MM = Missing Value Source: NWS Daily Summary

Daily Weather History Graph

Daily Weather History Graph

Search for Another Location

Airport or City:

Astronomy

Oct. 24, 2019 Rise Set
Actual Time 7:10 AM EDT 5:46 PM EDT
Civil Twilight 6:40 AM EDT 6:16 PM EDT
Nautical Twilight 6:07 AM EDT 6:49 PM EDT
Astronomical Twilight 5:33 AM EDT 7:23 PM EDT
Moon 2:23 AM EDT (10/24) 4:23 PM EDT (10/24)
Length of Visible Light 11h 35m
Length of Day
10h 36m
Waning Crescent, 17% of the Moon is Illuminated
Oct 24
Waning Crescent
Oct 27
New
Nov 4
First Quarter
Nov 12
Full
Nov 19
Last Quarter

Hourly Weather History & Observations

Time (EDT) Temp. Windchill Dew Point Humidity Pressure Visibility Wind Dir Wind Speed Gust Speed Precip Events Conditions
12:58 AM 27.9 °F 16.3 °F 26.6 °F 95% 30.01 in 0.2 mi North 15.0 mph 21.9 mph N/A Snow Heavy Snow
1:13 AM 28.4 °F 16.6 °F 26.6 °F 93% 30.00 in 0.2 mi NNW 16.1 mph 21.9 mph N/A Snow Heavy Snow
1:58 AM 26.6 °F 15.7 °F 24.6 °F 92% 29.99 in 0.5 mi NW 12.7 mph - N/A Snow Heavy Snow
2:03 AM 26.6 °F 13.8 °F 24.8 °F 93% 30.00 in 0.6 mi NNW 17.3 mph 21.9 mph N/A Snow Snow
2:13 AM 26.6 °F 14.3 °F 24.8 °F 93% 30.00 in 0.6 mi NNW 16.1 mph 21.9 mph N/A Snow Snow
2:48 AM 26.6 °F 14.7 °F 23.0 °F 86% 29.99 in 0.8 mi NW 15.0 mph - N/A Snow Snow
3:58 AM 25.7 °F 15.1 °F 23.0 °F 89% 29.99 in 1.0 mi NNW 11.5 mph 23.0 mph 0.01 in Snow Light Snow
4:58 AM 25.2 °F 13.3 °F 22.6 °F 90% 30.03 in 1.0 mi NNW 13.8 mph - N/A Snow Light Snow
5:13 AM 24.8 °F 12.9 °F 23.0 °F 93% 30.02 in 0.9 mi NNW 13.8 mph 21.9 mph N/A Snow Light Snow
5:18 AM 24.8 °F 11.9 °F 23.0 °F 93% 30.01 in 0.8 mi NNW 16.1 mph 24.2 mph N/A Snow Light Snow
5:33 AM 24.8 °F 11.5 °F 21.2 °F 86% 30.01 in 1.4 mi NNW 17.3 mph 27.6 mph N/A Snow Light Snow
5:48 AM 24.8 °F 12.4 °F 21.2 °F 86% 30.01 in 0.8 mi North 15.0 mph 26.5 mph N/A Snow Light Snow
6:28 AM 23.0 °F 9.6 °F 19.4 °F 86% 30.07 in 10.0 mi NNW 16.1 mph 24.2 mph N/A Snow Light Snow
6:35 AM 23.0 °F 9.6 °F 17.6 °F 80% 30.09 in 10.0 mi NNW 16.1 mph 27.6 mph N/A   Light Freezing Drizzle
6:40 AM 23.0 °F 10.1 °F 17.6 °F 80% 30.09 in 10.0 mi NNW 15.0 mph 27.6 mph N/A   Light Freezing Drizzle
6:58 AM 24.1 °F 10.6 °F 17.4 °F 76% 30.06 in 10.0 mi NW 17.3 mph 27.6 mph N/A   Light Freezing Drizzle
7:17 AM 24.8 °F 11.9 °F 19.4 °F 80% 30.08 in 8.0 mi NNW 16.1 mph 25.3 mph N/A   Light Ice Pellets
7:27 AM 24.8 °F 12.4 °F 19.4 °F 80% 30.10 in 10.0 mi NNW 15.0 mph - N/A Rain Light Freezing Rain
7:58 AM 23.9 °F 12.3 °F 19.2 °F 82% 30.12 in 10.0 mi NNW 12.7 mph - N/A Rain Light Freezing Rain
8:07 AM 24.8 °F 12.9 °F 19.4 °F 80% 30.12 in 10.0 mi NNW 13.8 mph 20.7 mph N/A   Light Ice Pellets
8:14 AM 24.8 °F 12.9 °F 19.4 °F 80% 30.13 in 10.0 mi NNW 13.8 mph 19.6 mph N/A Rain Light Freezing Rain
8:24 AM 24.8 °F 14.0 °F 19.4 °F 80% 30.13 in 10.0 mi NNW 11.5 mph 19.6 mph N/A Rain Light Freezing Rain
8:58 AM 24.1 °F 12.0 °F 19.8 °F 84% 30.13 in 10.0 mi NNW 13.8 mph 24.2 mph N/A Rain Light Freezing Rain
9:08 AM 24.8 °F 13.4 °F 19.4 °F 80% 30.14 in 10.0 mi NNW 12.7 mph 23.0 mph N/A Rain Light Freezing Rain
9:15 AM 24.8 °F 13.4 °F 19.4 °F 80% 30.14 in 10.0 mi NNW 12.7 mph 23.0 mph N/A   Light Ice Pellets
9:26 AM 24.8 °F 13.4 °F 19.4 °F 80% 30.16 in 10.0 mi NNW 12.7 mph - N/A Snow Light Snow
9:58 AM 23.5 °F 11.3 °F 21.0 °F 90% 30.17 in 2.8 mi North 13.8 mph - N/A Snow Light Snow
10:19 AM 23.0 °F 10.1 °F 21.2 °F 93% 30.17 in 7.0 mi North 15.0 mph - N/A Rain Light Freezing Rain
10:29 AM 23.0 °F 10.1 °F 21.2 °F 93% 30.17 in 6.0 mi North 15.0 mph - N/A Rain Light Freezing Rain
10:42 AM 23.0 °F 11.1 °F 21.2 °F 93% 30.19 in 5.0 mi North 12.7 mph - N/A Snow Light Snow
10:57 AM 24.8 °F 14.0 °F 21.2 °F 86% 30.19 in 2.8 mi NNW 11.5 mph - N/A Snow Light Snow
10:58 AM 24.3 °F 13.9 °F 21.2 °F 88% 30.19 in 3.0 mi NNW 10.4 mph - N/A Snow Light Snow
11:58 AM 26.8 °F 21.4 °F 20.7 °F 78% 30.20 in 10.0 mi North 4.6 mph - N/A   Clear
12:48 PM 26.6 °F 20.0 °F 23.0 °F 86% 30.23 in 10.0 mi ENE 5.8 mph - N/A   Mostly Cloudy
12:58 PM 27.0 °F 21.6 °F 24.4 °F 90% 30.22 in 10.0 mi ESE 4.6 mph - 0.06 in   Mostly Cloudy
1:10 PM 26.6 °F 20.0 °F 24.8 °F 93% 30.21 in 10.0 mi ESE 5.8 mph - N/A Rain Light Freezing Rain
1:15 PM 26.6 °F - 23.0 °F 86% 30.21 in 10.0 mi Calm Calm - N/A Rain Light Freezing Rain
1:20 PM 26.6 °F 22.6 °F 23.0 °F 86% 30.21 in 10.0 mi SSE 3.5 mph - N/A Rain Light Freezing Rain
1:31 PM 26.6 °F 22.6 °F 24.8 °F 93% 30.21 in 10.0 mi SE 3.5 mph - N/A   Overcast
1:58 PM 27.1 °F 21.8 °F 23.4 °F 86% 30.20 in 10.0 mi SE 4.6 mph - N/A   Mostly Cloudy
2:58 PM 27.0 °F 23.0 °F 22.5 °F 83% 30.17 in 10.0 mi SSW 3.5 mph - N/A   Mostly Cloudy
3:48 PM 28.4 °F 22.2 °F 23.0 °F 80% 30.15 in 10.0 mi SSW 5.8 mph - N/A   Overcast
3:58 PM 28.2 °F - 23.2 °F 81% 30.14 in 10.0 mi Calm Calm - N/A   Overcast
4:58 PM 28.4 °F 23.3 °F 24.1 °F 84% 30.12 in 10.0 mi SSE 4.6 mph - N/A   Mostly Cloudy
5:03 PM 28.4 °F 23.3 °F 23.0 °F 80% 30.12 in 10.0 mi SSE 4.6 mph - N/A   Scattered Clouds
5:16 PM 28.4 °F 22.2 °F 23.0 °F 80% 30.12 in 10.0 mi South 5.8 mph - N/A Snow Light Snow Showers
5:56 PM 28.4 °F - 24.8 °F 86% 30.11 in 10.0 mi Calm Calm - N/A   Clear
5:58 PM 28.4 °F 24.6 °F 23.9 °F 83% 30.11 in 10.0 mi South 3.5 mph - N/A   Clear
6:58 PM 28.6 °F 20.7 °F 25.0 °F 86% 30.10 in 10.0 mi SSE 8.1 mph - N/A   Clear
7:58 PM 27.9 °F 19.1 °F 25.0 °F 89% 30.11 in 10.0 mi South 9.2 mph - N/A   Clear
8:58 PM 27.5 °F 22.2 °F 24.8 °F 90% 30.14 in 10.0 mi South 4.6 mph - N/A   Clear
9:58 PM 27.7 °F 22.4 °F 23.2 °F 83% 30.17 in 10.0 mi SW 4.6 mph - N/A   Clear
10:58 PM 27.7 °F 21.3 °F 23.0 °F 83% 30.16 in 10.0 mi SSW 5.8 mph - N/A   Clear
11:58 PM 25.7 °F 20.1 °F 21.9 °F 86% 30.17 in 10.0 mi NW 4.6 mph - N/A   Clear